Needles, CA

1:35 PM PDT on April 29, 2017 (GMT -0700)
Needles

Weather History for KEED - March, 2013

Change the Weather History Date:

Sunday, March 3, 2013

  Actual Average Record
Temperature  
Mean Temperature 68 °F 62 °F  
Max Temperature 80 °F 74 °F 91 °F (1910)
Min Temperature 57 °F 49 °F 32 °F (1952)
Degree Days  
Heating Degree Days 0    
Cooling Degree Days 4    
Growing Degree Days 18 (Base 50)    
Moisture  
Dew Point 30 °F    
Average Humidity 26    
Maximum Humidity 37    
Minimum Humidity 14    
Precipitation  
Precipitation 0.00 in 0.02 in 1.10 in (1938)
Month to date precipitation 0.07  
Year to date precipitation 1.57  
Sea Level Pressure  
Sea Level Pressure 29.86 in    
Wind  
Wind Speed 6 mph (South)    
Max Wind Speed 18 mph    
Max Gust Speed 17 mph    
Visibility 10 miles    
Events      
T = Trace of Precipitation, MM = Missing Value Source: NWS Daily Summary

Daily Weather History Graph

Daily Weather History Graph

Search for Another Location

Airport or City:

Trip Planner

Search our weather history database for the weather conditions in past years. The results will help you decide how hot, cold, wet, or windy it might be!

Date:

Astronomy

Mar. 03, 2013 Rise Set
Actual Time 6:04 AM PST 5:36 PM PST
Civil Twilight 5:39 AM PST 6:01 PM PST
Nautical Twilight 5:10 AM PST 6:30 PM PST
Astronomical Twilight 4:41 AM PST 7:00 PM PST
Moon No Moon Rise 9:39 AM PST (3/3)
Length of Visible Light 12h 22m
Length of Day
11h 31m
Waning Gibbous, 62% of the Moon is Illuminated
Mar 3
Waning Gibbous
Mar 4
Last Quarter
Mar 11
New
Mar 19
First Quarter
Mar 27
Full

Hourly Weather History & Observations

Time (PST) Temp. Dew Point Humidity Pressure Visibility Wind Dir Wind Speed Gust Speed Precip Events Conditions
12:56 AM 60.1 °F 28.0 °F 30% 29.97 in 10.0 mi WNW 6.9 mph - N/A   Clear
1:56 AM 59.0 °F 28.0 °F 31% 29.96 in 10.0 mi WNW 4.6 mph - N/A   Clear
2:56 AM 57.9 °F 28.9 °F 33% 29.94 in 10.0 mi NW 8.1 mph - N/A   Clear
4:56 AM 60.1 °F 30.0 °F 32% 29.94 in 10.0 mi Calm Calm - N/A   Clear
5:56 AM 59.0 °F 30.9 °F 35% 29.94 in 10.0 mi South 3.5 mph - N/A   Partly Cloudy
6:56 AM 57.9 °F 32.0 °F 37% 29.95 in 10.0 mi East 3.5 mph - N/A   Clear
7:56 AM 61.0 °F 32.0 °F 34% 29.96 in 10.0 mi North 3.5 mph - N/A   Clear
8:56 AM 66.9 °F 32.0 °F 27% 29.94 in 10.0 mi Calm Calm - N/A   Clear
9:56 AM 64.0 °F 34.0 °F 33% 29.94 in 10.0 mi Calm Calm - N/A   Clear
10:56 AM 68.0 °F 34.0 °F 28% 29.91 in 10.0 mi East 3.5 mph - N/A   Clear
11:56 AM 72.0 °F 32.0 °F 23% 29.90 in 10.0 mi ESE 4.6 mph - N/A   Clear
12:56 PM 77.0 °F 30.0 °F 18% 29.86 in 10.0 mi SE 5.8 mph - N/A   Clear
1:56 PM 80.1 °F 27.0 °F 14% 29.82 in 10.0 mi South 10.4 mph 17.3 mph N/A   Partly Cloudy
2:56 PM 80.1 °F 28.0 °F 15% 29.80 in 10.0 mi SSE 13.8 mph - N/A   Clear
3:56 PM 79.0 °F 28.0 °F 15% 29.78 in 10.0 mi SSE 12.7 mph - N/A   Clear
4:56 PM 78.1 °F 27.0 °F 15% 29.76 in 10.0 mi South 9.2 mph - N/A   Clear
5:56 PM 73.0 °F 28.0 °F 19% 29.76 in 10.0 mi South 8.1 mph - N/A   Clear
6:56 PM 70.0 °F 27.0 °F 20% 29.77 in 10.0 mi South 5.8 mph - N/A   Clear
7:56 PM 68.0 °F 27.0 °F 21% 29.75 in 10.0 mi West 5.8 mph - N/A   Clear
8:56 PM 71.1 °F 28.0 °F 20% 29.75 in 10.0 mi WSW 18.4 mph - N/A   Clear
9:56 PM 64.9 °F 30.9 °F 28% 29.77 in 10.0 mi SSE 5.8 mph - N/A   Clear
10:56 PM 66.0 °F 34.0 °F 30% 29.78 in 10.0 mi SW 9.2 mph - N/A   Clear
11:56 PM 66.9 °F 36.0 °F 32% 29.78 in 10.0 mi West 12.7 mph - N/A   Clear